Location: Unspecified
(0.0000°N, 0.0000°E)
Time: 09:12:59
(UTC+00:00)

Explorer 11/Cluster Stage 4 - Pass Details

Date: 22 July 2020
Orbit: 467 x 1259 km, 28.8° (Epoch: 03 August)

Event Time Altitude Azimuth Distance (km) Brightness Sun altitude
Rises 00:18:36 0° 213° (SSW) 3,765 - -69.6°
Reaches altitude 10° 00:23:16 10° 187° (S) 2,607 - -69.4°
Maximum altitude 00:25:56 13° 161° (SSE) 2,279 - -69.2°
Drops below altitude 10° 00:28:24 10° 135° (SE) 2,355 - -69.1°
Sets 00:32:08 0° 106° (ESE) 3,085 - -68.8°
